Location: Wapato
(46.4478°N, 120.4212°W)
Time: 04:52:13
(UTC+00:00)

Vanguard 1 Rocket - Visible Passes

Search period start: 10 May 2026 00:00
Search period end: 20 May 2026 00:00
Orbit: 655 x 4212 km, 34.3° (Epoch: 9 May)

Date Brightness Start Highest point End Pass type
(mag) Time Alt. Az. Time Alt. Az. Time Alt. Az.
10 May 10.8 05:05:42 10° W 05:24:49 47° SSW 05:41:59 22° SSE visible
10 May 11.1 07:36:53 10° W 07:53:34 24° SW 07:59:05 22° SSW visible
11 May 10.7 03:52:13 10° W 04:09:29 53° SSW 04:32:59 12° SE visible
11 May 11.0 06:20:36 10° W 06:39:06 33° SW 06:50:05 25° S visible
12 May 10.9 05:06:02 10° W 05:24:09 42° SSW 05:41:08 20° SSE visible
12 May 11.3 07:38:28 10° W 07:52:31 19° SW 07:58:15 17° SW visible
13 May 10.7 03:52:32 10° W 04:09:01 49° SSW 04:32:13 11° SE visible
13 May 11.2 06:21:20 10° W 06:38:15 28° SW 06:49:20 21° S visible
14 May 11.0 05:06:30 10° W 05:23:29 37° SSW 05:40:29 18° SSE visible
14 May 11.5 07:41:25 10° WSW 07:51:33 14° SW 07:57:36 13° SW visible
15 May 10.8 03:52:54 10° W 04:08:35 44° SSW 04:31:31 10° SE visible
15 May 11.3 06:22:29 10° W 06:37:26 23° SW 06:48:47 17° SSW visible
16 May 11.1 05:07:10 10° W 05:22:53 32° SSW 05:40:02 15° SSE visible
17 May 10.9 03:53:25 10° W 04:08:11 39° SSW 04:29:54 10° SSE visible
17 May 11.5 06:24:24 10° WSW 06:36:40 18° SW 06:48:27 12° SSW visible
18 May 11.2 05:08:10 10° W 05:22:19 26° SW 05:39:47 11° S visible
19 May 11.0 03:54:06 10° W 04:07:50 34° SSW 04:27:56 10° SSE visible
19 May 11.6 06:27:58 10° WSW 06:36:02 13° SW 06:44:58 10° SSW visible
